EST,Max TemperatureF,Mean TemperatureF,Min TemperatureF,Max Dew PointF,MeanDew PointF,Min DewpointF,Max Humidity, Mean Humidity, Min Humidity, Max Sea Level PressureIn, Mean Sea Level PressureIn, Min Sea Level PressureIn, Max VisibilityMiles, Mean VisibilityMiles, Min VisibilityMiles, Max Wind SpeedMPH, Mean Wind SpeedMPH, Max Gust SpeedMPH,PrecipitationIn, CloudCover, Events, WindDirDegrees
2014-2-1,48,38,28,45,34,27,100,84,57,30.23,30.19,30.15,10,6,1,10,1,,0.00,7,Rain,78
2014-2-2,62,52,42,57,54,52,100,90,72,30.20,30.13,30.03,10,6,0,10,2,,0.00,4,Fog-Rain,197
2014-2-3,69,58,46,64,62,54,100,95,73,30.16,30.05,29.98,10,8,0,17,8,24,0.00,6,Fog-Rain,216
2014-2-4,51,46,41,50,44,41,100,94,82,30.33,30.21,30.11,10,6,0,14,9,20,0.00,8,Fog-Rain,58
2014-2-5,62,50,39,55,43,34,94,69,48,30.15,30.01,29.93,10,6,0,20,5,29,0.00,4,Fog-Rain,257
2014-2-6,46,39,32,36,32,30,100,75,53,30.34,30.26,30.16,10,10,10,15,4,23,0.00,2,Rain,17
2014-2-7,53,42,30,37,35,32,100,73,47,30.37,30.30,30.26,10,8,1,6,0,,0.00,0,,29
2014-2-8,60,46,33,41,38,34,100,79,45,30.29,30.20,30.12,10,10,7,6,0,,0.00,1,,41
2014-2-9,62,48,33,46,41,34,100,77,48,30.19,30.12,30.03,10,9,5,17,2,23,0.00,1,,247
2014-2-10,55,45,35,45,41,36,100,86,63,30.18,30.11,30.05,10,10,10,13,2,16,0.00,5,Rain,29
2014-2-11,41,36,32,39,35,32,100,100,87,30.34,30.26,30.17,10,7,3,16,11,22,0.00,8,Rain,48
2014-2-12,32,31,30,32,31,30,100,100,100,30.32,30.12,29.81,10,5,1,15,7,24,0.00,8,Snow,49
2014-2-13,,,,,,,,,,,,,,,,,,,0.00,,,-1
2014-2-14,,,,,,,,,,,,,,,,,,,,,,
2014-2-15,,,,,,,,,,,,,,,,,,,,,,
2014-2-16,62,50,37,36,35,32,87,53,34,30.17,30.12,30.08,10,10,10,17,8,24,0.00,0,,258
2014-2-17,60,46,32,45,35,32,100,68,42,30.31,30.23,30.17,10,10,10,15,3,21,0.00,1,,100
2014-2-18,71,55,39,55,47,43,100,68,35,30.27,30.19,30.10,10,9,0,10,3,20,0.00,2,Fog-Rain,210
2014-2-19,78,66,55,59,57,54,100,77,44,30.13,30.08,30.03,10,10,10,21,9,28,0.00,2,,233
2014-2-20,80,66,51,63,57,52,100,78,44,30.17,30.11,30.03,10,10,10,18,5,26,0.00,0,,180
2014-2-21,66,54,41,64,51,34,100,78,39,30.09,29.99,29.93,10,10,3,16,8,34,0.00,4,Rain,217
2014-2-22,68,52,35,43,35,32,93,56,28,30.22,30.14,30.08,10,10,7,12,4,17,0.00,0,,88
2014-2-23,62,50,37,54,46,37,100,82,48,30.14,30.07,29.99,10,10,10,9,2,,0.00,0,,206
2014-2-24,69,58,48,52,43,41,100,57,35,30.12,30.06,29.97,10,9,2,10,3,16,0.00,1,,311
2014-2-25,68,54,41,50,45,36,100,72,37,30.09,30.02,29.95,10,10,7,21,3,25,0.00,2,,259
2014-2-26,55,45,35,48,43,37,100,92,77,29.95,29.88,29.82,10,10,5,8,2,,0.00,6,Rain,336
2014-2-27,57,42,28,34,28,23,100,60,29,29.99,29.91,29.86,10,9,0,15,3,21,0.00,0,Fog,262
2014-2-28,55,42,28,36,27,19,86,57,35,30.24,30.14,29.98,10,10,10,18,5,23,0.00,0,,74